TimeEDT,TemperatureF,Dew PointF,Humidity,Sea Level PressureIn,VisibilityMPH,Wind Direction,Wind SpeedMPH,Gust SpeedMPH,PrecipitationIn,Events,Conditions,WindDirDegrees,DateUTC
12:54 AM,57.0,55.9,96,30.14,8.0,Calm,Calm,-,0.00,,Overcast,0,2013-10-06 04:54:00
1:01 AM,57.0,55.9,96,30.14,8.0,Calm,Calm,-,N/A,,Overcast,0,2013-10-06 05:01:00
1:54 AM,55.9,55.0,97,30.14,4.0,East,4.6,-,N/A,,Overcast,90,2013-10-06 05:54:00
2:54 AM,57.0,55.0,93,30.13,10.0,East,5.8,-,N/A,,Overcast,80,2013-10-06 06:54:00
3:54 AM,55.9,55.9,100,30.13,5.0,East,3.5,-,N/A,,Overcast,90,2013-10-06 07:54:00
4:26 AM,55.9,55.9,100,30.13,5.0,East,5.8,-,N/A,,Overcast,80,2013-10-06 08:26:00
4:54 AM,55.9,55.0,97,30.14,6.0,ENE,4.6,-,0.00,Rain,Light Rain,70,2013-10-06 08:54:00
5:12 AM,55.9,55.0,97,30.15,2.5,Calm,Calm,-,0.05,Rain,Heavy Rain,0,2013-10-06 09:12:00
5:22 AM,55.9,55.0,97,30.15,2.5,ENE,8.1,-,0.09,Rain,Rain,60,2013-10-06 09:22:00
5:54 AM,55.9,55.0,97,30.16,2.5,East,9.2,-,0.14,Rain,Light Rain,80,2013-10-06 09:54:00
6:04 AM,55.9,55.0,97,30.16,3.0,ENE,9.2,-,0.01,Rain,Light Rain,70,2013-10-06 10:04:00
6:29 AM,55.0,55.0,100,30.17,2.5,East,5.8,-,0.08,Rain,Rain,80,2013-10-06 10:29:00
6:39 AM,55.0,55.0,100,30.17,5.0,ENE,9.2,-,0.08,Rain,Light Rain,70,2013-10-06 10:39:00
6:54 AM,55.0,54.0,96,30.17,4.0,ENE,9.2,-,0.09,Rain,Light Rain,70,2013-10-06 10:54:00
7:32 AM,54.0,53.1,97,30.18,10.0,East,11.5,-,0.01,Rain,Light Rain,80,2013-10-06 11:32:00
7:42 AM,54.0,53.1,97,30.18,9.0,ENE,9.2,-,0.01,,Overcast,70,2013-10-06 11:42:00
7:51 AM,53.6,53.6,100,30.18,9.0,ENE,9.2,-,0.01,,Overcast,70,2013-10-06 11:51:00
7:54 AM,54.0,53.1,97,30.19,10.0,ENE,10.4,-,0.01,,Overcast,70,2013-10-06 11:54:00
8:19 AM,54.0,53.1,97,30.19,9.0,ENE,8.1,-,N/A,,Overcast,70,2013-10-06 12:19:00
8:54 AM,54.0,54.0,100,30.20,4.0,East,9.2,-,0.01,Rain,Light Rain,90,2013-10-06 12:54:00
9:46 AM,53.1,53.1,100,30.21,1.8,ENE,9.2,-,0.00,Rain,Light Rain,70,2013-10-06 13:46:00
9:54 AM,53.1,53.1,100,30.22,1.5,ENE,9.2,-,0.00,Rain,Light Rain,60,2013-10-06 13:54:00
10:15 AM,53.1,52.0,96,30.21,0.5,NE,10.4,-,0.00,Fog-Rain,Light Rain,50,2013-10-06 14:15:00
10:28 AM,52.0,52.0,100,30.21,1.2,NE,11.5,18.4,0.01,,Overcast,50,2013-10-06 14:28:00
10:38 AM,52.0,52.0,100,30.21,0.8,ENE,10.4,-,0.01,,Mist,70,2013-10-06 14:38:00
10:54 AM,52.0,52.0,100,30.22,0.5,ENE,9.2,-,0.01,Fog-Rain,Light Rain,60,2013-10-06 14:54:00
11:28 AM,51.1,51.1,100,30.21,0.2,ENE,11.5,18.4,0.00,Fog-Rain,Light Rain,60,2013-10-06 15:28:00
11:43 AM,51.1,51.1,100,30.21,0.5,ENE,11.5,-,0.00,Fog-Rain,Light Rain,60,2013-10-06 15:43:00
11:54 AM,51.1,51.1,100,30.22,0.2,ENE,6.9,-,0.00,Fog-Rain,Light Rain,70,2013-10-06 15:54:00
12:51 PM,51.8,51.8,100,30.20,0.5,NE,9.2,-,0.02,Rain,Light Rain,50,2013-10-06 16:51:00
12:54 PM,51.1,51.1,100,30.22,0.5,ENE,9.2,-,0.02,Rain,Light Rain,60,2013-10-06 16:54:00
1:26 PM,51.1,51.1,100,30.19,0.2,ENE,8.1,-,0.01,Fog-Rain,Rain,60,2013-10-06 17:26:00
1:54 PM,51.1,51.1,100,30.20,0.2,NE,9.2,-,0.03,Fog-Rain,Light Rain,50,2013-10-06 17:54:00
2:54 PM,52.0,52.0,100,30.19,0.2,Variable,5.8,-,0.01,Fog-Rain,Light Rain,0,2013-10-06 18:54:00
3:54 PM,52.0,52.0,100,30.19,0.2,NE,6.9,-,0.05,Fog-Rain,Rain,50,2013-10-06 19:54:00
4:54 PM,52.0,52.0,100,30.18,0.2,ENE,4.6,-,0.04,Fog,Fog,60,2013-10-06 20:54:00
5:54 PM,53.1,53.1,100,30.18,0.2,East,6.9,-,0.01,Fog,Fog,80,2013-10-06 21:54:00
6:54 PM,53.1,53.1,100,30.19,0.2,East,6.9,-,N/A,Fog,Fog,100,2013-10-06 22:54:00
7:54 PM,53.1,53.1,100,30.19,0.2,ESE,6.9,-,0.01,Fog,Fog,110,2013-10-06 23:54:00
8:50 PM,53.6,53.6,100,30.17,0.5,ESE,8.1,-,0.01,Fog,Fog,110,2013-10-07 00:50:00
8:54 PM,53.1,53.1,100,30.18,0.5,East,10.4,-,0.01,Fog,Fog,100,2013-10-07 00:54:00
9:01 PM,53.1,53.1,100,30.17,0.2,East,8.1,-,N/A,Fog,Fog,100,2013-10-07 01:01:00
9:54 PM,53.1,53.1,100,30.17,0.2,East,6.9,-,N/A,Fog,Fog,80,2013-10-07 01:54:00
10:54 PM,53.1,53.1,100,30.16,0.2,ENE,5.8,-,N/A,Fog,Fog,70,2013-10-07 02:54:00
11:54 PM,53.1,53.1,100,30.14,0.2,ENE,6.9,-,0.01,Fog-Rain,Light Rain,70,2013-10-07 03:54:00